San Diego, CA

5:16 PM PST on February 27, 2017 (GMT -0800)
San Diego International-Lindbergh

Weather History for KSAN - March, 2014

Change the Weather History Date:

Monday, March 17, 2014

  Actual Average Record
Temperature  
Mean Temperature 65 °F 60 °F  
Max Temperature 70 °F 66 °F 93 °F (1978)
Min Temperature 59 °F 53 °F 40 °F (1881)
Degree Days  
Heating Degree Days 0 6  
Month to date heating degree days 26 105  
Since 1 July heating degree days 482 963  
Cooling Degree Days 0 0  
Month to date cooling degree days 19 0  
Year to date cooling degree days 28 5  
Growing Degree Days 14 (Base 50)    
Moisture  
Dew Point 51 °F    
Average Humidity 62    
Maximum Humidity 84    
Minimum Humidity 40    
Precipitation  
Precipitation 0.00 in 0.05 in 2.03 in (1982)
Month to date precipitation 1.25 1.15  
Year to date precipitation 2.26 5.40  
Since 1 July precipitation 4.50  
Snow  
Snow 0.00 in - - ()
Month to date snowfall 0.0  
Year to date snowfall 0.0  
Snow Depth 0.00 in    
Sea Level Pressure  
Sea Level Pressure 29.95 in    
Wind  
Wind Speed 5 mph (SW)    
Max Wind Speed 14 mph    
Max Gust Speed 17 mph    
Visibility 10 miles    
Events      
T = Trace of Precipitation, MM = Missing Value Source: NWS Daily Summary

Daily Weather History Graph

Daily Weather History Graph

Search for Another Location

Airport or City:

Trip Planner

Search our weather history database for the weather conditions in past years. The results will help you decide how hot, cold, wet, or windy it might be!

Date:

Astronomy

Mar. 17, 2014 Rise Set
Actual Time 6:56 AM PDT 6:58 PM PDT
Civil Twilight 6:31 AM PDT 7:22 PM PDT
Nautical Twilight 6:03 AM PDT 7:51 PM PDT
Astronomical Twilight 5:34 AM PDT 8:20 PM PDT
Moon 8:13 PM PDT (3/17) 7:18 AM PDT (3/17)
Length of Visible Light 12h 51m
Length of Day
12h 01m
Full, 99% of the Moon is Illuminated
Mar 17
Full
Mar 23
Last Quarter
Mar 30
New
Apr 7
First Quarter
Apr 15
Full

Hourly Weather History & Observations

Time (PDT) Temp. Dew Point Humidity Pressure Visibility Wind Dir Wind Speed Gust Speed Precip Events Conditions
12:51 AM 64.9 °F 45.0 °F 48% 30.10 in 10.0 mi Calm Calm - N/A   Clear
1:51 AM 64.0 °F 39.0 °F 40% 30.07 in 10.0 mi Calm Calm - N/A   Clear
2:51 AM 62.1 °F 39.9 °F 44% 30.05 in 10.0 mi Calm Calm - N/A   Clear
3:51 AM 61.0 °F 41.0 °F 48% 30.02 in 10.0 mi Calm Calm - N/A   Clear
4:51 AM 59.0 °F 41.0 °F 51% 30.03 in 10.0 mi NNW 3.5 mph - N/A   Clear
5:06 AM 59.0 °F 41.0 °F 51% 30.02 in 10.0 mi Calm Calm - N/A   Partly Cloudy
5:51 AM 61.0 °F 52.0 °F 72% 30.01 in 10.0 mi Calm Calm - N/A   Clear
6:18 AM 60.8 °F 51.8 °F 72% 30.01 in 10.0 mi Calm Calm - N/A   Partly Cloudy
6:51 AM 61.0 °F 54.0 °F 78% 30.00 in 10.0 mi East 3.5 mph - N/A   Scattered Clouds
7:06 AM 60.8 °F 55.4 °F 82% 30.00 in 9.0 mi Calm Calm - N/A   Mostly Cloudy
7:40 AM 60.8 °F 53.6 °F 77% 30.00 in 9.0 mi Calm Calm - N/A   Scattered Clouds
7:51 AM 61.0 °F 55.0 °F 81% 30.00 in 8.0 mi Calm Calm - N/A   Partly Cloudy
8:51 AM 63.0 °F 51.1 °F 65% 30.01 in 10.0 mi South 3.5 mph - N/A   Scattered Clouds
9:51 AM 64.0 °F 55.0 °F 73% 30.01 in 10.0 mi South 3.5 mph - N/A   Scattered Clouds
10:51 AM 66.0 °F 55.0 °F 68% 29.99 in 10.0 mi SSE 8.1 mph - N/A   Scattered Clouds
11:51 AM 66.9 °F 55.0 °F 66% 29.97 in 10.0 mi South 5.8 mph - N/A   Scattered Clouds
12:51 PM 68.0 °F 55.0 °F 63% 29.94 in 10.0 mi SSW 9.2 mph - N/A   Scattered Clouds
1:51 PM 66.9 °F 55.0 °F 66% 29.92 in 10.0 mi WSW 9.2 mph - N/A   Scattered Clouds
2:51 PM 69.1 °F 55.0 °F 61% 29.90 in 10.0 mi West 6.9 mph - N/A   Scattered Clouds
3:51 PM 70.0 °F 54.0 °F 57% 29.88 in 10.0 mi WSW 5.8 mph - N/A   Scattered Clouds
4:51 PM 69.1 °F 55.0 °F 61% 29.86 in 10.0 mi WSW 9.2 mph - N/A   Scattered Clouds
5:51 PM 66.9 °F 55.0 °F 66% 29.85 in 10.0 mi SSW 9.2 mph - N/A   Scattered Clouds
6:16 PM 66.2 °F 55.4 °F 68% 29.85 in 10.0 mi SSW 5.8 mph - N/A   Mostly Cloudy
6:51 PM 66.0 °F 55.0 °F 68% 29.86 in 10.0 mi West 6.9 mph - N/A   Mostly Cloudy
7:51 PM 64.9 °F 53.1 °F 65% 29.86 in 10.0 mi West 5.8 mph - N/A   Mostly Cloudy
8:51 PM 64.0 °F 53.1 °F 67% 29.86 in 10.0 mi West 5.8 mph - N/A   Mostly Cloudy
9:51 PM 64.0 °F 53.1 °F 67% 29.87 in 10.0 mi West 6.9 mph - N/A   Mostly Cloudy
10:51 PM 63.0 °F 52.0 °F 67% 29.87 in 10.0 mi SW 8.1 mph - N/A   Mostly Cloudy
11:51 PM 63.0 °F 52.0 °F 67% 29.86 in 10.0 mi SW 8.1 mph - N/A   Overcast